Flag for Germany Weather past 2 weeks in Langenhagen, Lower Saxony, Germany

Now
63 °F

Fog.


Feels Like: 63 °F
Forecast: 55 / 62 °F
Wind: 7 mph from West

Location: Hannover

Current Time: Sep 21, 2014 at 12:25:52 AM

Latest Report: Sep 20, 2014 at 11:50 PM


Visibility: 2 mi

Pressure: 29.89 "Hg

Humidity: 94%

Dew point: 61 °F

Location of LangenhagenLocation

Historic Weather in Langenhagen — Graph

°F

Langenhagen temperature yesterday

Maximum temperature yesterday: 68 °F (at 2:50 PM)
Minimum temperature yesterday: 61 °F (at 9:20 PM)
Average temperature yesterday: 64 °F

Past Weeks' High & Low Weather Summary

 TemperatureHumidityPressure
High77 °F (Sep 6, 1:50 PM)100% (Sep 6, 1:50 AM)30.21 "Hg (Sep 6, 1:50 AM)
Low46 °F (Sep 12, 3:20 AM)47% (Sep 17, 5:50 PM)29.86 "Hg (Sep 6, 3:20 PM)
Average62 °F86%30.02 "Hg
* Reported Sep 5 10:20 PM — Sep 20 10:20 PM, Langenhagen, Weather by CustomWeather, © 2014

Note: Actual official high and low records may vary slightly from our data, if they occured in-between our weather recording intervals... More about our weather records

Advertising

Langenhagen weather history for previous 24 hours

 ConditionsComfort  
Time TempWeatherWind HumidityBarometerVisibility
10:20 PM
Sep 20
63 °FFog.5 mph94%29.89 "Hg2 mi
9:50 PM63 °FMild.3 mph94%29.92 "Hg2 mi
9:20 PM61 °FCool.5 mph94%29.89 "Hg2 mi
8:50 PM63 °FFog.2 mph94%29.92 "Hg3 mi
8:20 PM64 °FClear.No wind88%29.92 "Hg4 mi
7:50 PM64 °FBroken clouds.3 mph88%29.89 "Hg5 mi
3:20 PM68 °FBroken clouds.5 mph88%29.92 "Hg4 mi
2:50 PM68 °FBroken clouds.3 mph88%29.92 "Hg4 mi
2:20 PM66 °FBroken clouds.7 mph94%29.92 "Hg4 mi
1:50 PM66 °FPartly sunny.6 mph94%29.92 "Hg4 mi
1:20 PM66 °FFog.7 mph94%29.92 "Hg3 mi
12:20 PM64 °FDrizzle. Fog.6 mph100%29.92 "Hg2 mi
11:50 AM64 °FSleet. Fog.6 mph94%29.92 "Hg3 mi
11:20 AM64 °FDrizzle. Fog.3 mph100%29.92 "Hg2 mi
10:50 AM64 °FFog.6 mph100%29.92 "Hg1 mi
10:20 AM64 °FFog.5 mph100%29.92 "Hg1 mi
9:50 AM64 °FFog.6 mph94%29.92 "Hg1 mi
9:20 AM64 °FFog.7 mph94%29.92 "Hg1 mi
8:50 AM64 °FFog.5 mph94%29.92 "Hg1 mi
8:20 AM63 °FDrizzle. Fog.5 mph100%29.92 "Hg1 mi
7:50 AM63 °FFog.5 mph100%29.92 "Hg2 mi
7:20 AM63 °FFog.2 mph100%29.92 "Hg2 mi
6:50 AM63 °FFog.2 mph100%29.89 "Hg2 mi
6:20 AM63 °FPartly cloudy.2 mph100%29.89 "HgN/A
5:50 AM63 °FPassing clouds.2 mph100%29.89 "HgN/A
5:20 AM63 °FPassing clouds.2 mph100%29.89 "HgN/A
4:50 AM63 °FPassing clouds.1 mph100%29.89 "HgN/A
4:20 AM63 °FPassing clouds.No wind100%29.89 "HgN/A
3:50 AM63 °FPassing clouds.No wind100%29.89 "HgN/A
3:20 AM63 °FPassing clouds.3 mph100%29.89 "HgN/A
2:50 AM63 °FPassing clouds.3 mph100%29.92 "HgN/A
2:20 AM64 °FPassing clouds.2 mph94%29.92 "HgN/A
1:50 AM64 °FPassing clouds.2 mph94%29.89 "HgN/A
1:20 AM63 °FPartly cloudy.3 mph100%29.92 "HgN/A
12:50 AM64 °FPartly cloudy.3 mph94%29.92 "HgN/A
12:20 AM64 °FPassing clouds.3 mph94%29.92 "HgN/A
Weather by CustomWeather, © 2014

See weather overviewHow to use our weather pages